ANA612 VHHH-RJGG

Flight info

Callsign ANA612
Flight time 3h 10m
Altitude 37000
Route DALOL V631 ENVAR M750 IMPAL Y755 CARDS
Aircraft B77W/H-SDE1E2E3FGHIJ2J3J4J5M1RWXY/LB1D1

Departure

Time 2026-05-06 10:36
Airport Hong Kong International Airport (VHHH)

Arrival

Time 2026-05-06 13:46
Airport Chubu Centrair International Airport (RJGG)
Time Latitude Longitude Altitude Speed Heading
2026-05-06 10:09 22.31076 113.92554 44 ft 0 kts 116°
2026-05-06 10:25 22.31078 113.92551 44 ft 2 kts 116°
2026-05-06 10:25 22.31084 113.92536 44 ft 2 kts 116°
2026-05-06 10:25 22.31091 113.92522 44 ft 2 kts 116°
2026-05-06 10:25 22.31098 113.92507 43 ft 2 kts 116°
2026-05-06 10:26 22.31105 113.92493 43 ft 2 kts 136°
2026-05-06 10:26 22.31118 113.92485 43 ft 2 kts 163°
2026-05-06 10:26 22.31133 113.92483 43 ft 2 kts 187°
2026-05-06 10:26 22.31147 113.92487 44 ft 2 kts 209°
2026-05-06 10:27 22.31151 113.92490 44 ft 0 kts 210°
2026-05-06 10:28 22.31142 113.92484 44 ft 4 kts 210°
2026-05-06 10:29 22.31097 113.92461 43 ft 9 kts 205°
2026-05-06 10:29 22.31021 113.92423 43 ft 14 kts 205°
2026-05-06 10:29 22.30919 113.92371 42 ft 18 kts 205°
2026-05-06 10:29 22.30818 113.92327 41 ft 12 kts 182°
2026-05-06 10:30 22.30747 113.92339 41 ft 10 kts 176°
2026-05-06 10:30 22.30738 113.92339 41 ft 9 kts 184°
2026-05-06 10:30 22.30701 113.92291 41 ft 9 kts 250°
2026-05-06 10:30 22.30671 113.92198 40 ft 16 kts 250°
2026-05-06 10:31 22.30626 113.92060 40 ft 22 kts 251°
2026-05-06 10:31 22.30570 113.91884 39 ft 27 kts 250°
2026-05-06 10:31 22.30496 113.91669 38 ft 32 kts 249°
2026-05-06 10:31 22.30420 113.91434 37 ft 32 kts 253°
2026-05-06 10:32 22.30352 113.91205 37 ft 30 kts 252°
2026-05-06 10:32 22.30286 113.90993 36 ft 29 kts 251°
2026-05-06 10:32 22.30219 113.90794 37 ft 26 kts 250°
2026-05-06 10:32 22.30157 113.90612 37 ft 24 kts 250°
2026-05-06 10:33 22.30100 113.90443 38 ft 22 kts 252°
2026-05-06 10:33 22.30053 113.90292 39 ft 20 kts 252°
2026-05-06 10:33 22.30010 113.90153 39 ft 18 kts 251°
2026-05-06 10:33 22.29972 113.90034 40 ft 15 kts 251°
2026-05-06 10:34 22.29938 113.89930 40 ft 13 kts 251°
2026-05-06 10:34 22.29900 113.89856 40 ft 10 kts 214°
2026-05-06 10:34 22.29849 113.89846 39 ft 8 kts 165°
2026-05-06 10:34 22.29775 113.89871 39 ft 14 kts 161°
2026-05-06 10:35 22.29680 113.89919 39 ft 12 kts 124°
2026-05-06 10:35 22.29685 113.90007 39 ft 11 kts 70°
2026-05-06 10:35 22.29709 113.90076 39 ft 15 kts 70°
2026-05-06 10:35 22.29812 113.90395 38 ft 81 kts 71°
2026-05-06 10:36 22.30075 113.91207 36 ft 146 kts 71°
2026-05-06 10:36 22.30447 113.92372 400 ft 169 kts 72°
2026-05-06 10:36 22.30829 113.93548 1175 ft 172 kts 73°
2026-05-06 10:36 22.31224 113.94771 1974 ft 174 kts 73°
2026-05-06 10:37 22.31622 113.96014 2502 ft 182 kts 73°
2026-05-06 10:37 22.32044 113.97325 3086 ft 188 kts 73°
2026-05-06 10:37 22.32487 113.98701 3500 ft 204 kts 73°
2026-05-06 10:37 22.32969 114.00204 3924 ft 221 kts 72°
2026-05-06 10:38 22.33492 114.01834 4373 ft 239 kts 72°
2026-05-06 10:38 22.33877 114.03640 4825 ft 254 kts 88°
2026-05-06 10:38 22.33621 114.05518 5449 ft 259 kts 112°
2026-05-06 10:38 22.32667 114.07152 6123 ft 262 kts 135°
2026-05-06 10:39 22.31189 114.08302 6795 ft 265 kts 157°
2026-05-06 10:39 22.29398 114.08832 7461 ft 268 kts 176°
2026-05-06 10:39 22.27529 114.08826 8150 ft 273 kts 185°
2026-05-06 10:39 22.25620 114.08733 8896 ft 277 kts 184°
2026-05-06 10:40 22.23688 114.08684 9639 ft 281 kts 183°
2026-05-06 10:40 22.21701 114.08673 10340 ft 288 kts 180°
2026-05-06 10:40 22.19643 114.08960 10775 ft 309 kts 169°
2026-05-06 10:40 22.17555 114.09716 11186 ft 329 kts 157°
2026-05-06 10:41 22.15518 114.11018 11626 ft 348 kts 144°
2026-05-06 10:41 22.13751 114.12850 12060 ft 367 kts 128°
2026-05-06 10:41 22.12316 114.15232 12515 ft 384 kts 121°
2026-05-06 10:41 22.10931 114.17767 13040 ft 398 kts 121°
2026-05-06 10:42 22.09535 114.20332 13725 ft 406 kts 121°
2026-05-06 10:42 22.08093 114.22982 14566 ft 410 kts 121°
2026-05-06 10:42 22.06863 114.25240 15257 ft 414 kts 121°
2026-05-06 10:42 22.05401 114.27923 16097 ft 418 kts 121°
2026-05-06 10:43 22.03937 114.30609 16920 ft 421 kts 121°
2026-05-06 10:43 22.02455 114.33326 17720 ft 424 kts 121°
2026-05-06 10:43 22.00940 114.36102 18450 ft 430 kts 121°
2026-05-06 10:44 21.97876 114.41713 19803 ft 442 kts 122°
2026-05-06 10:44 21.96309 114.44579 20470 ft 448 kts 122°
2026-05-06 10:44 21.94717 114.47491 21165 ft 452 kts 122°
2026-05-06 10:44 21.93115 114.50419 21832 ft 457 kts 122°
2026-05-06 10:45 21.91513 114.53346 22463 ft 463 kts 122°
2026-05-06 10:45 21.89871 114.56342 23112 ft 468 kts 122°
2026-05-06 10:45 21.88196 114.59399 23773 ft 472 kts 122°
2026-05-06 10:45 21.86547 114.62406 24401 ft 476 kts 122°
2026-05-06 10:46 21.84847 114.65506 25049 ft 481 kts 122°
2026-05-06 10:46 21.83148 114.68601 25642 ft 486 kts 122°
2026-05-06 10:46 21.81421 114.71746 26212 ft 492 kts 122°
2026-05-06 10:46 21.79669 114.74935 26823 ft 496 kts 122°
2026-05-06 10:47 21.77924 114.78109 27420 ft 500 kts 122°
2026-05-06 10:47 21.76283 114.81454 27967 ft 506 kts 114°
2026-05-06 10:47 21.75113 114.85032 28524 ft 511 kts 105°
2026-05-06 10:47 21.74442 114.88769 29077 ft 515 kts 96°
2026-05-06 10:48 21.74264 114.92640 29642 ft 519 kts 89°
2026-05-06 10:48 21.74275 114.96542 30190 ft 523 kts 89°
2026-05-06 10:48 21.74296 115.00417 30725 ft 527 kts 89°
2026-05-06 10:48 21.74311 115.04358 31386 ft 527 kts 89°
2026-05-06 10:49 21.74509 115.08298 32105 ft 524 kts 82°
2026-05-06 10:49 21.74912 115.12135 32802 ft 522 kts 82°
2026-05-06 10:49 21.75332 115.15992 33487 ft 521 kts 82°
2026-05-06 10:49 21.75753 115.19864 34218 ft 519 kts 82°
2026-05-06 10:50 21.76166 115.23659 34997 ft 515 kts 81°
2026-05-06 10:50 21.76585 115.27528 35723 ft 512 kts 81°
2026-05-06 10:50 21.76998 115.31345 36326 ft 510 kts 81°
2026-05-06 10:50 21.77403 115.35094 36779 ft 511 kts 81°
2026-05-06 10:51 21.77816 115.38925 36922 ft 515 kts 81°
2026-05-06 10:51 21.78631 115.46510 36924 ft 512 kts 81°
2026-05-06 10:52 21.79444 115.54108 36934 ft 513 kts 81°
2026-05-06 10:52 21.80257 115.61744 36944 ft 512 kts 81°
2026-05-06 10:53 21.81061 115.69329 36935 ft 513 kts 81°
2026-05-06 10:53 21.81865 115.76940 36937 ft 513 kts 81°
2026-05-06 10:54 21.82668 115.84579 36938 ft 512 kts 81°
2026-05-06 10:54 21.83465 115.92204 36936 ft 512 kts 82°
2026-05-06 10:55 21.84257 115.99803 36936 ft 513 kts 82°
2026-05-06 10:55 21.85048 116.07442 36937 ft 512 kts 82°
2026-05-06 10:56 21.85831 116.15022 36938 ft 513 kts 81°
2026-05-06 10:56 21.86614 116.22641 36943 ft 513 kts 81°
2026-05-06 10:57 21.87394 116.30269 36943 ft 513 kts 81°
2026-05-06 10:57 21.88167 116.37868 36944 ft 513 kts 81°
2026-05-06 10:58 21.88938 116.45470 36945 ft 512 kts 81°
2026-05-06 10:58 21.89707 116.53095 36947 ft 512 kts 81°
2026-05-06 10:59 21.90467 116.60668 36947 ft 512 kts 81°
2026-05-06 10:59 21.91232 116.68325 36940 ft 512 kts 82°
2026-05-06 11:00 21.91990 116.75952 36939 ft 513 kts 82°
2026-05-06 11:00 21.92744 116.83565 36941 ft 513 kts 82°
2026-05-06 11:01 21.93495 116.91193 36942 ft 514 kts 82°
2026-05-06 11:01 21.94246 116.98852 36941 ft 513 kts 82°
2026-05-06 11:02 21.94989 117.06466 36942 ft 512 kts 82°
2026-05-06 11:02 21.95726 117.14060 36945 ft 512 kts 82°
2026-05-06 11:03 21.96462 117.21680 36941 ft 513 kts 82°
2026-05-06 11:03 21.97195 117.29299 36937 ft 512 kts 82°
2026-05-06 11:04 21.97925 117.36932 36932 ft 513 kts 82°
2026-05-06 11:04 21.98661 117.44589 36921 ft 513 kts 80°
2026-05-06 11:05 22.00496 117.51911 36929 ft 507 kts 63°
2026-05-06 11:05 22.03916 117.58491 36928 ft 502 kts 54°
2026-05-06 11:06 22.07596 117.64889 36920 ft 501 kts 52°
2026-05-06 11:06 22.11738 117.70842 36927 ft 499 kts 49°
2026-05-06 11:07 22.16007 117.76816 36930 ft 497 kts 49°
2026-05-06 11:07 22.20200 117.82689 36936 ft 497 kts 49°
2026-05-06 11:08 22.24441 117.88635 36931 ft 498 kts 49°
2026-05-06 11:08 22.28688 117.94595 36939 ft 499 kts 49°
2026-05-06 11:09 22.32900 118.00515 36938 ft 499 kts 49°
2026-05-06 11:09 22.37146 118.06489 36939 ft 498 kts 49°
2026-05-06 11:10 22.41362 118.12427 36946 ft 499 kts 48°
2026-05-06 11:10 22.45577 118.18370 36943 ft 498 kts 48°
2026-05-06 11:11 22.49792 118.24320 36946 ft 499 kts 48°
2026-05-06 11:11 22.54014 118.30285 36944 ft 499 kts 48°
2026-05-06 11:12 22.58224 118.36243 36948 ft 499 kts 48°
2026-05-06 11:12 22.62463 118.42246 36949 ft 498 kts 48°
2026-05-06 11:13 22.66667 118.48207 36950 ft 499 kts 48°
2026-05-06 11:13 22.70886 118.54198 36950 ft 499 kts 48°
2026-05-06 11:14 22.75097 118.60181 36951 ft 499 kts 48°
2026-05-06 11:14 22.79287 118.66142 36945 ft 500 kts 49°
2026-05-06 11:15 22.83523 118.72177 36940 ft 500 kts 49°
2026-05-06 11:15 22.87733 118.78182 36941 ft 498 kts 49°
2026-05-06 11:16 22.91926 118.84168 36941 ft 501 kts 48°
2026-05-06 11:16 22.96132 118.90181 36942 ft 498 kts 48°
2026-05-06 11:17 23.00295 118.96139 36946 ft 500 kts 48°
2026-05-06 11:17 23.04506 119.02171 36944 ft 501 kts 48°
2026-05-06 11:18 23.08710 119.08202 36942 ft 500 kts 48°
2026-05-06 11:18 23.12915 119.14240 36951 ft 500 kts 48°
2026-05-06 11:19 23.17118 119.20284 36951 ft 500 kts 48°
2026-05-06 11:19 23.21293 119.26294 36955 ft 501 kts 48°
2026-05-06 11:20 23.25503 119.32362 36950 ft 500 kts 48°
2026-05-06 11:20 23.29686 119.38397 36947 ft 500 kts 48°
2026-05-06 11:21 23.33865 119.44434 36944 ft 502 kts 48°
2026-05-06 11:21 23.38044 119.50479 36949 ft 500 kts 48°
2026-05-06 11:22 23.42229 119.56538 36947 ft 501 kts 48°
2026-05-06 11:22 23.46399 119.62583 36949 ft 500 kts 48°
2026-05-06 11:23 23.50571 119.68639 36939 ft 500 kts 49°
2026-05-06 11:23 23.54754 119.74719 36940 ft 501 kts 49°
2026-05-06 11:24 23.58905 119.80758 36938 ft 499 kts 49°
2026-05-06 11:24 23.63079 119.86839 36938 ft 502 kts 49°
2026-05-06 11:25 23.67260 119.92936 36937 ft 501 kts 49°
2026-05-06 11:25 23.71411 119.98997 36939 ft 502 kts 48°
2026-05-06 11:26 23.75611 120.05137 36943 ft 500 kts 48°
2026-05-06 11:26 23.79782 120.11243 36948 ft 504 kts 48°
2026-05-06 11:27 23.83924 120.17314 36955 ft 501 kts 48°
2026-05-06 11:27 23.88121 120.23472 36964 ft 502 kts 48°
2026-05-06 11:28 23.92259 120.29552 36969 ft 502 kts 49°
2026-05-06 11:28 23.96433 120.35692 36970 ft 501 kts 48°
2026-05-06 11:29 24.00603 120.41831 36974 ft 504 kts 49°
2026-05-06 11:29 24.04749 120.47946 36983 ft 502 kts 48°
2026-05-06 11:30 24.08927 120.54114 36984 ft 502 kts 48°
2026-05-06 11:30 24.13098 120.60281 37000 ft 503 kts 49°
2026-05-06 11:31 24.17235 120.66403 36999 ft 503 kts 49°
2026-05-06 11:31 24.21410 120.72591 37000 ft 504 kts 49°
2026-05-06 11:32 24.25557 120.78742 37029 ft 505 kts 49°
2026-05-06 11:32 24.29715 120.84922 37060 ft 503 kts 49°
2026-05-06 11:33 24.33896 120.91140 37097 ft 503 kts 49°
2026-05-06 11:33 24.38033 120.97303 37148 ft 504 kts 49°
2026-05-06 11:34 24.42197 121.03501 37183 ft 501 kts 48°
2026-05-06 11:34 24.46543 121.09489 37200 ft 502 kts 46°
2026-05-06 11:35 24.50887 121.15443 37227 ft 500 kts 46°
2026-05-06 11:35 24.55242 121.21433 37204 ft 501 kts 47°
2026-05-06 11:36 24.59590 121.27431 37201 ft 503 kts 47°
2026-05-06 11:36 24.63928 121.33427 37136 ft 501 kts 46°
2026-05-06 11:37 24.68259 121.39423 37087 ft 501 kts 47°
2026-05-06 11:37 24.72594 121.45434 37066 ft 501 kts 47°
2026-05-06 11:38 24.76886 121.51393 37030 ft 501 kts 47°
2026-05-06 11:38 24.81217 121.57414 37012 ft 500 kts 47°
2026-05-06 11:39 24.85522 121.63406 37002 ft 501 kts 47°
2026-05-06 11:39 24.89847 121.69435 36985 ft 499 kts 47°
2026-05-06 11:40 24.94343 121.75232 36985 ft 499 kts 44°
2026-05-06 11:40 24.98885 121.80971 36983 ft 497 kts 44°
2026-05-06 11:41 25.03411 121.86716 36978 ft 499 kts 44°
2026-05-06 11:41 25.07978 121.92531 36976 ft 500 kts 44°
2026-05-06 11:42 25.12514 121.98322 36972 ft 497 kts 44°
2026-05-06 11:42 25.17010 122.04118 36970 ft 498 kts 45°
2026-05-06 11:43 25.21478 122.09916 36969 ft 496 kts 45°
2026-05-06 11:43 25.25931 122.15698 36970 ft 497 kts 45°
2026-05-06 11:44 25.32630 122.24411 36971 ft 496 kts 45°
2026-05-06 11:44 25.37110 122.30245 36969 ft 496 kts 45°
2026-05-06 11:45 25.41572 122.36064 36971 ft 495 kts 45°
2026-05-06 11:45 25.46016 122.41868 36975 ft 496 kts 45°
2026-05-06 11:46 25.50469 122.47688 36971 ft 496 kts 45°
2026-05-06 11:46 25.54922 122.53481 36972 ft 495 kts 44°
2026-05-06 11:47 25.59355 122.59239 36970 ft 494 kts 44°
2026-05-06 11:47 25.63849 122.65086 36972 ft 496 kts 45°
2026-05-06 11:48 25.68300 122.70886 36963 ft 495 kts 45°
2026-05-06 11:48 25.72771 122.76719 36962 ft 496 kts 45°
2026-05-06 11:49 25.77208 122.82518 36964 ft 495 kts 45°
2026-05-06 11:49 25.81664 122.88346 36968 ft 494 kts 45°
2026-05-06 11:50 25.86105 122.94164 36983 ft 495 kts 44°
2026-05-06 11:50 25.90542 122.99982 36979 ft 496 kts 44°
2026-05-06 11:51 25.95003 123.05844 36984 ft 495 kts 44°
2026-05-06 11:51 25.99428 123.11667 36982 ft 496 kts 44°
2026-05-06 11:52 26.03866 123.17516 36972 ft 494 kts 44°
2026-05-06 11:52 26.08310 123.23378 36971 ft 493 kts 44°
2026-05-06 11:53 26.12703 123.29183 36982 ft 491 kts 44°
2026-05-06 11:53 26.17084 123.34976 36982 ft 492 kts 44°
2026-05-06 11:54 26.21487 123.40807 36987 ft 491 kts 44°
2026-05-06 11:54 26.25891 123.46647 36987 ft 492 kts 44°
2026-05-06 11:55 26.30258 123.52446 36987 ft 489 kts 44°
2026-05-06 11:55 26.34637 123.58267 36990 ft 491 kts 44°
2026-05-06 11:56 26.38985 123.64056 36992 ft 488 kts 44°
2026-05-06 11:56 26.43354 123.69879 36981 ft 491 kts 44°
2026-05-06 11:57 26.47734 123.75726 36983 ft 487 kts 44°
2026-05-06 11:57 26.52066 123.81514 36985 ft 490 kts 44°
2026-05-06 11:58 26.56412 123.87331 36988 ft 487 kts 44°
2026-05-06 11:58 26.60749 123.93140 36988 ft 487 kts 44°
2026-05-06 11:59 26.65066 123.98933 36984 ft 486 kts 44°
2026-05-06 11:59 26.69420 124.04761 36985 ft 487 kts 44°
2026-05-06 12:00 26.73723 124.10520 36990 ft 486 kts 44°
2026-05-06 12:00 26.78087 124.16367 36991 ft 486 kts 44°
2026-05-06 12:01 26.82397 124.22150 36986 ft 483 kts 44°
2026-05-06 12:01 26.86685 124.27911 36995 ft 483 kts 44°
2026-05-06 12:02 26.90985 124.33695 36992 ft 484 kts 44°
2026-05-06 12:02 26.95293 124.39498 37002 ft 485 kts 44°
2026-05-06 12:03 26.99595 124.45300 37002 ft 483 kts 44°
2026-05-06 12:03 27.03890 124.51096 37009 ft 484 kts 44°
2026-05-06 12:04 27.08186 124.56902 37007 ft 485 kts 44°
2026-05-06 12:04 27.12466 124.62692 37023 ft 484 kts 44°
2026-05-06 12:05 27.16772 124.68527 37006 ft 484 kts 44°
2026-05-06 12:05 27.21063 124.74349 37010 ft 483 kts 44°
2026-05-06 12:06 27.25314 124.80123 37011 ft 483 kts 44°
2026-05-06 12:06 27.29583 124.85932 37011 ft 481 kts 44°
2026-05-06 12:07 27.33830 124.91718 37009 ft 480 kts 44°
2026-05-06 12:07 27.38073 124.97504 37008 ft 480 kts 44°
2026-05-06 12:08 27.42341 125.03298 37006 ft 481 kts 43°
2026-05-06 12:08 27.46626 125.09071 37010 ft 480 kts 44°
2026-05-06 12:09 27.50901 125.14840 37014 ft 481 kts 44°
2026-05-06 12:09 27.55171 125.20615 37009 ft 478 kts 43°
2026-05-06 12:10 27.59414 125.26358 37011 ft 479 kts 44°
2026-05-06 12:10 27.63657 125.32110 37002 ft 478 kts 43°
2026-05-06 12:11 27.67890 125.37857 37009 ft 478 kts 44°
2026-05-06 12:11 27.72160 125.43663 37005 ft 477 kts 44°
2026-05-06 12:12 27.76363 125.49385 37008 ft 475 kts 44°
2026-05-06 12:12 27.80593 125.55151 37004 ft 477 kts 44°
2026-05-06 12:13 27.84808 125.60904 37009 ft 477 kts 44°
2026-05-06 12:13 27.89015 125.66654 36999 ft 476 kts 44°
2026-05-06 12:14 27.93244 125.72443 36996 ft 476 kts 44°
2026-05-06 12:14 27.97451 125.78209 36997 ft 476 kts 44°
2026-05-06 12:15 28.01646 125.83967 36993 ft 474 kts 44°
2026-05-06 12:15 28.05870 125.89771 36997 ft 475 kts 44°
2026-05-06 12:16 28.10077 125.95559 37001 ft 477 kts 44°
2026-05-06 12:16 28.14272 126.01343 37003 ft 474 kts 44°
2026-05-06 12:17 28.18437 126.07089 36994 ft 474 kts 44°
2026-05-06 12:17 28.22641 126.12898 37009 ft 473 kts 44°
2026-05-06 12:18 28.26810 126.18666 37010 ft 474 kts 44°
2026-05-06 12:18 28.30965 126.24424 36999 ft 473 kts 44°
2026-05-06 12:19 28.35127 126.30199 37013 ft 472 kts 44°
2026-05-06 12:19 28.39275 126.35961 37016 ft 473 kts 44°
2026-05-06 12:20 28.43421 126.41730 37013 ft 470 kts 45°
2026-05-06 12:20 28.47545 126.47475 37028 ft 471 kts 45°
2026-05-06 12:21 28.51674 126.53233 37007 ft 472 kts 45°
2026-05-06 12:21 28.55803 126.59004 37020 ft 469 kts 45°
2026-05-06 12:22 28.59925 126.64768 37024 ft 472 kts 45°
2026-05-06 12:22 28.64040 126.70534 37009 ft 468 kts 45°
2026-05-06 12:23 28.68144 126.76291 37006 ft 471 kts 45°
2026-05-06 12:23 28.72272 126.82090 37014 ft 469 kts 45°
2026-05-06 12:24 28.76380 126.87869 37009 ft 469 kts 46°
2026-05-06 12:24 28.80460 126.93615 37013 ft 468 kts 45°
2026-05-06 12:25 28.84568 126.99409 37014 ft 468 kts 45°
2026-05-06 12:25 28.88634 127.05153 37014 ft 469 kts 46°
2026-05-06 12:26 28.92725 127.10939 37004 ft 469 kts 46°
2026-05-06 12:26 28.96842 127.16769 37001 ft 471 kts 46°
2026-05-06 12:27 29.00942 127.22585 37008 ft 471 kts 46°
2026-05-06 12:27 29.05049 127.28419 37010 ft 473 kts 46°
2026-05-06 12:28 29.09145 127.34247 37007 ft 472 kts 46°
2026-05-06 12:28 29.13256 127.40102 37016 ft 474 kts 46°
2026-05-06 12:29 29.17379 127.45984 37019 ft 473 kts 46°
2026-05-06 12:29 29.21487 127.51852 37022 ft 473 kts 46°
2026-05-06 12:30 29.25599 127.57734 37007 ft 472 kts 47°
2026-05-06 12:30 29.29677 127.63577 37019 ft 473 kts 47°
2026-05-06 12:31 29.33804 127.69497 37008 ft 474 kts 47°
2026-05-06 12:31 29.37921 127.75411 37016 ft 476 kts 47°
2026-05-06 12:32 29.42033 127.81329 37005 ft 474 kts 47°
2026-05-06 12:32 29.46146 127.87254 37011 ft 476 kts 47°
2026-05-06 12:33 29.50238 127.93159 37017 ft 473 kts 48°
2026-05-06 12:33 29.54339 127.99083 37002 ft 474 kts 48°
2026-05-06 12:34 29.58451 128.05026 37002 ft 477 kts 48°
2026-05-06 12:34 29.62591 128.11018 37007 ft 479 kts 48°
2026-05-06 12:35 29.66708 128.16989 37008 ft 478 kts 48°
2026-05-06 12:35 29.70876 128.23038 37019 ft 488 kts 48°
2026-05-06 12:36 29.75066 128.29134 37005 ft 479 kts 47°
2026-05-06 12:36 29.79221 128.35181 37008 ft 488 kts 48°
2026-05-06 12:37 29.83446 128.41342 37003 ft 493 kts 49°
2026-05-06 12:37 29.87683 128.47533 37012 ft 494 kts 49°
2026-05-06 12:38 29.91967 128.53801 37013 ft 497 kts 49°
2026-05-06 12:38 29.96227 128.60043 37019 ft 500 kts 49°
2026-05-06 12:39 30.00571 128.66417 37014 ft 503 kts 50°
2026-05-06 12:39 30.04866 128.72731 37013 ft 503 kts 50°
2026-05-06 12:40 30.09175 128.79074 37012 ft 504 kts 50°
2026-05-06 12:40 30.13487 128.85434 37013 ft 500 kts 50°
2026-05-06 12:41 30.17757 128.91739 37012 ft 501 kts 50°
2026-05-06 12:41 30.22059 128.98103 37011 ft 502 kts 51°
2026-05-06 12:42 30.26349 129.04459 37013 ft 501 kts 51°
2026-05-06 12:42 30.30637 129.10822 37013 ft 503 kts 51°
2026-05-06 12:43 30.34937 129.17213 37013 ft 505 kts 51°
2026-05-06 12:43 30.39235 129.23612 37015 ft 508 kts 51°
2026-05-06 12:44 30.43571 129.30077 37017 ft 504 kts 50°
2026-05-06 12:44 30.47888 129.36523 37021 ft 510 kts 51°
2026-05-06 12:45 30.52218 129.43002 37024 ft 508 kts 51°
2026-05-06 12:46 30.58699 129.52718 37031 ft 511 kts 51°
2026-05-06 12:46 30.63034 129.59229 37035 ft 512 kts 51°
2026-05-06 12:47 30.67388 129.65781 37027 ft 512 kts 51°
2026-05-06 12:47 30.71759 129.72366 37024 ft 515 kts 52°
2026-05-06 12:48 30.75380 129.77830 37025 ft 517 kts 52°
2026-05-06 12:48 30.80467 129.85524 37026 ft 515 kts 52°
2026-05-06 12:49 30.84811 129.92271 37024 ft 518 kts 57°
2026-05-06 12:49 30.88631 129.99377 37034 ft 520 kts 58°
2026-05-06 12:50 30.92425 130.06522 37034 ft 518 kts 59°
2026-05-06 12:50 30.96201 130.13643 37036 ft 521 kts 59°
2026-05-06 12:51 30.99997 130.20810 37041 ft 522 kts 59°
2026-05-06 12:51 31.03809 130.28023 37042 ft 521 kts 59°
2026-05-06 12:52 31.07592 130.35190 37050 ft 523 kts 59°
2026-05-06 12:52 31.11400 130.42419 37041 ft 524 kts 59°
2026-05-06 12:53 31.15212 130.49669 37051 ft 524 kts 59°
2026-05-06 12:53 31.19014 130.56915 37052 ft 526 kts 58°
2026-05-06 12:54 31.22836 130.64209 37056 ft 527 kts 59°
2026-05-06 12:54 31.26647 130.71498 37049 ft 528 kts 60°
2026-05-06 12:55 31.30458 130.78801 37057 ft 528 kts 60°
2026-05-06 12:55 31.34289 130.86154 37062 ft 531 kts 59°
2026-05-06 12:56 31.38133 130.93547 37064 ft 530 kts 60°
2026-05-06 12:56 31.41947 131.00900 37076 ft 534 kts 60°
2026-05-06 12:57 31.45786 131.08310 37072 ft 532 kts 60°
2026-05-06 12:57 31.49611 131.15710 37070 ft 534 kts 60°
2026-05-06 12:58 31.53449 131.23149 37073 ft 534 kts 60°
2026-05-06 12:58 31.57252 131.30536 37076 ft 534 kts 60°
2026-05-06 12:59 31.61096 131.38016 37073 ft 537 kts 60°
2026-05-06 12:59 31.64930 131.45499 37077 ft 536 kts 60°
2026-05-06 13:00 31.68701 131.53078 37078 ft 539 kts 63°
2026-05-06 13:00 31.72256 131.60765 37075 ft 538 kts 63°
2026-05-06 13:01 31.75819 131.68500 37064 ft 538 kts 63°
2026-05-06 13:01 31.79355 131.76192 37061 ft 539 kts 64°
2026-05-06 13:02 31.82923 131.83966 37062 ft 540 kts 64°
2026-05-06 13:02 31.86470 131.91716 37064 ft 542 kts 64°
2026-05-06 13:03 31.90033 131.99513 37052 ft 542 kts 64°
2026-05-06 13:03 31.93620 132.07382 37055 ft 544 kts 64°
2026-05-06 13:04 31.97177 132.15201 37057 ft 543 kts 64°
2026-05-06 13:04 32.00728 132.23022 37057 ft 545 kts 64°
2026-05-06 13:05 32.04272 132.30846 37063 ft 544 kts 64°
2026-05-06 13:05 32.07831 132.38719 37063 ft 545 kts 63°
2026-05-06 13:06 32.11382 132.46590 37054 ft 544 kts 64°
2026-05-06 13:06 32.14907 132.54422 37054 ft 545 kts 64°
2026-05-06 13:07 32.18468 132.62350 37058 ft 545 kts 63°
2026-05-06 13:07 32.21993 132.70216 37046 ft 544 kts 64°
2026-05-06 13:08 32.25536 132.78137 37048 ft 546 kts 64°
2026-05-06 13:08 32.29062 132.86040 37050 ft 546 kts 64°
2026-05-06 13:09 32.32604 132.93996 37057 ft 549 kts 64°
2026-05-06 13:09 32.36148 133.01973 37058 ft 549 kts 64°
2026-05-06 13:10 32.39678 133.09935 37055 ft 550 kts 64°
2026-05-06 13:10 32.43216 133.17932 37063 ft 549 kts 64°
2026-05-06 13:11 32.46754 133.25951 37065 ft 552 kts 64°
2026-05-06 13:11 32.50284 133.33964 37068 ft 550 kts 64°
2026-05-06 13:12 32.53821 133.42013 37070 ft 550 kts 64°
2026-05-06 13:12 32.57333 133.50026 37073 ft 551 kts 64°
2026-05-06 13:13 32.60867 133.58104 37077 ft 552 kts 64°
2026-05-06 13:13 32.64361 133.66107 37073 ft 552 kts 64°
2026-05-06 13:14 32.67892 133.74217 37066 ft 552 kts 64°
2026-05-06 13:14 32.71402 133.82294 37066 ft 550 kts 64°
2026-05-06 13:15 32.74898 133.90359 37067 ft 551 kts 64°
2026-05-06 13:15 32.78392 133.98438 37069 ft 551 kts 65°
2026-05-06 13:16 32.81791 134.06560 37065 ft 549 kts 70°
2026-05-06 13:16 32.85075 134.14722 37063 ft 552 kts 57°
2026-05-06 13:17 32.89717 134.21953 37068 ft 554 kts 51°
2026-05-06 13:17 32.94537 134.29115 37072 ft 552 kts 51°
2026-05-06 13:18 32.99322 134.36240 37071 ft 555 kts 51°
2026-05-06 13:18 33.04147 134.43436 37075 ft 553 kts 51°
2026-05-06 13:19 33.08965 134.50636 37076 ft 556 kts 51°
2026-05-06 13:19 33.13726 134.57764 37068 ft 555 kts 50°
2026-05-06 13:20 33.18541 134.64987 37067 ft 554 kts 51°
2026-05-06 13:20 33.23360 134.72232 37055 ft 558 kts 51°
2026-05-06 13:21 33.28162 134.79465 37048 ft 556 kts 51°
2026-05-06 13:21 33.32955 134.86699 36741 ft 553 kts 51°
2026-05-06 13:21 33.35360 134.90334 35689 ft 557 kts 51°
2026-05-06 13:22 33.37739 134.93932 34790 ft 558 kts 51°
2026-05-06 13:22 33.40134 134.97559 33979 ft 558 kts 51°
2026-05-06 13:22 33.42518 135.01172 33138 ft 558 kts 51°
2026-05-06 13:22 33.44941 135.04848 32320 ft 558 kts 51°
2026-05-06 13:23 33.47342 135.08496 31443 ft 559 kts 51°
2026-05-06 13:23 33.49731 135.12128 30591 ft 559 kts 51°
2026-05-06 13:23 33.52101 135.15736 30113 ft 552 kts 51°
2026-05-06 13:23 33.54442 135.19301 29647 ft 545 kts 51°
2026-05-06 13:24 33.56781 135.22870 29116 ft 539 kts 51°
2026-05-06 13:24 33.59093 135.26398 28591 ft 534 kts 51°
2026-05-06 13:24 33.61356 135.29857 28048 ft 530 kts 51°
2026-05-06 13:24 33.63621 135.33322 27497 ft 526 kts 51°
2026-05-06 13:25 33.65847 135.36729 26945 ft 522 kts 51°
2026-05-06 13:25 33.68089 135.40164 26382 ft 518 kts 51°
2026-05-06 13:25 33.70301 135.43556 25820 ft 515 kts 51°
2026-05-06 13:25 33.72480 135.46901 25248 ft 511 kts 51°
2026-05-06 13:26 33.74645 135.50229 24675 ft 508 kts 50°
2026-05-06 13:26 33.76811 135.53560 24087 ft 504 kts 51°
2026-05-06 13:26 33.78968 135.56880 23530 ft 501 kts 51°
2026-05-06 13:26 33.81095 135.60158 22951 ft 498 kts 50°
2026-05-06 13:27 33.83218 135.63432 22372 ft 495 kts 50°
2026-05-06 13:27 33.85315 135.66667 21780 ft 493 kts 51°
2026-05-06 13:27 33.87406 135.69899 21173 ft 490 kts 51°
2026-05-06 13:27 33.89506 135.73146 20560 ft 487 kts 51°
2026-05-06 13:28 33.91572 135.76343 19909 ft 482 kts 51°
2026-05-06 13:28 33.93583 135.79460 19261 ft 465 kts 51°
2026-05-06 13:28 33.95527 135.82475 18735 ft 447 kts 51°
2026-05-06 13:28 33.97391 135.85370 18178 ft 431 kts 51°
2026-05-06 13:29 33.99181 135.88150 17724 ft 421 kts 51°
2026-05-06 13:29 34.00976 135.90938 17110 ft 421 kts 51°
2026-05-06 13:29 34.02756 135.93706 16510 ft 420 kts 51°
2026-05-06 13:29 34.04536 135.96475 15940 ft 419 kts 51°
2026-05-06 13:30 34.06319 135.99251 15373 ft 416 kts 51°
2026-05-06 13:30 34.08076 136.01988 14804 ft 414 kts 51°
2026-05-06 13:30 34.09841 136.04741 14238 ft 412 kts 51°
2026-05-06 13:30 34.11570 136.07439 13670 ft 409 kts 52°
2026-05-06 13:31 34.13313 136.10161 13067 ft 407 kts 52°
2026-05-06 13:31 34.15023 136.12833 12463 ft 405 kts 52°
2026-05-06 13:31 34.16737 136.15514 11872 ft 403 kts 52°
2026-05-06 13:31 34.18453 136.18172 11289 ft 399 kts 49°
2026-05-06 13:32 34.20419 136.20509 10765 ft 394 kts 38°
2026-05-06 13:32 34.22543 136.22476 10559 ft 380 kts 36°
2026-05-06 13:32 34.24638 136.24374 10374 ft 367 kts 36°
2026-05-06 13:32 34.26627 136.26176 10164 ft 357 kts 36°
2026-05-06 13:33 34.28603 136.27971 9936 ft 347 kts 36°
2026-05-06 13:33 34.30484 136.29683 9616 ft 333 kts 36°
2026-05-06 13:33 34.32302 136.31339 9433 ft 315 kts 36°
2026-05-06 13:33 34.34015 136.32901 9224 ft 304 kts 36°
2026-05-06 13:34 34.35673 136.34415 9015 ft 294 kts 36°
2026-05-06 13:34 34.37304 136.35904 8796 ft 289 kts 36°
2026-05-06 13:34 34.38893 136.37357 8581 ft 286 kts 36°
2026-05-06 13:34 34.40474 136.38803 8372 ft 285 kts 36°
2026-05-06 13:35 34.41867 136.40498 8147 ft 283 kts 57°
2026-05-06 13:35 34.42795 136.42586 7965 ft 284 kts 65°
2026-05-06 13:35 34.43596 136.44742 7768 ft 281 kts 66°
2026-05-06 13:35 34.44384 136.46907 7572 ft 278 kts 66°
2026-05-06 13:36 34.45166 136.49054 7381 ft 278 kts 66°
2026-05-06 13:36 34.45950 136.51196 7188 ft 278 kts 66°
2026-05-06 13:36 34.46726 136.53319 6994 ft 276 kts 67°
2026-05-06 13:36 34.47504 136.55447 6804 ft 275 kts 67°
2026-05-06 13:37 34.48277 136.57561 6609 ft 273 kts 67°
2026-05-06 13:37 34.49044 136.59660 6421 ft 273 kts 67°
2026-05-06 13:37 34.49815 136.61774 6229 ft 270 kts 67°
2026-05-06 13:37 34.50574 136.63855 6046 ft 270 kts 67°
2026-05-06 13:38 34.51332 136.65935 5855 ft 269 kts 67°
2026-05-06 13:38 34.52079 136.67986 5665 ft 266 kts 67°
2026-05-06 13:38 34.52831 136.70052 5478 ft 266 kts 67°
2026-05-06 13:38 34.53574 136.72096 5288 ft 264 kts 68°
2026-05-06 13:39 34.54308 136.74114 5104 ft 262 kts 67°
2026-05-06 13:39 34.55043 136.76137 4923 ft 259 kts 68°
2026-05-06 13:39 34.55762 136.78117 4744 ft 253 kts 68°
2026-05-06 13:39 34.56456 136.80031 4575 ft 247 kts 68°
2026-05-06 13:40 34.57142 136.81921 4409 ft 240 kts 68°
2026-05-06 13:40 34.57805 136.83751 4244 ft 233 kts 68°
2026-05-06 13:40 34.58686 136.85342 4070 ft 228 kts 42°
2026-05-06 13:40 34.60074 136.86189 3925 ft 224 kts 12°
2026-05-06 13:41 34.61635 136.86238 3909 ft 225 kts 356°
2026-05-06 13:41 34.63157 136.85963 3898 ft 213 kts 351°
2026-05-06 13:41 34.64597 136.85622 3895 ft 213 kts 350°
2026-05-06 13:41 34.66071 136.85265 3637 ft 216 kts 350°
2026-05-06 13:42 34.67526 136.84914 3355 ft 212 kts 350°
2026-05-06 13:42 34.68954 136.84570 3087 ft 207 kts 351°
2026-05-06 13:42 34.70365 136.84233 2818 ft 203 kts 351°
2026-05-06 13:42 34.71736 136.83907 2554 ft 199 kts 351°
2026-05-06 13:43 34.73088 136.83585 2293 ft 195 kts 351°
2026-05-06 13:43 34.74392 136.83273 2038 ft 191 kts 351°
2026-05-06 13:43 34.75673 136.82968 1785 ft 181 kts 351°
2026-05-06 13:43 34.76834 136.82689 1543 ft 160 kts 351°
2026-05-06 13:44 34.77914 136.82433 1340 ft 152 kts 351°
2026-05-06 13:44 34.78924 136.82191 1144 ft 148 kts 350°
2026-05-06 13:44 34.79938 136.81949 940 ft 146 kts 350°
2026-05-06 13:44 34.80933 136.81711 740 ft 145 kts 350°
2026-05-06 13:45 34.81659 136.81538 592 ft 145 kts 349°
2026-05-06 13:45 34.83624 136.81067 193 ft 143 kts 349°
2026-05-06 13:45 34.84604 136.80839 36 ft 141 kts 349°
2026-05-06 13:46 34.85440 136.80638 30 ft 98 kts 349°
2026-05-06 13:46 34.85979 136.80507 30 ft 50 kts 349°
2026-05-06 13:46 34.86227 136.80525 30 ft 25 kts 15°
2026-05-06 13:46 34.86327 136.80571 30 ft 9 kts 44°
2026-05-06 13:47 34.86312 136.80647 30 ft 12 kts 137°
2026-05-06 13:47 34.86219 136.80693 30 ft 16 kts 172°
2026-05-06 13:47 34.86092 136.80722 30 ft 19 kts 169°
2026-05-06 13:47 34.86033 136.80827 30 ft 11 kts 123°
2026-05-06 13:48 34.85952 136.80870 30 ft 14 kts 166°
2026-05-06 13:48 34.85843 136.80894 30 ft 17 kts 170°
2026-05-06 13:48 34.85719 136.80924 30 ft 16 kts 169°
2026-05-06 13:48 34.85657 136.80980 30 ft 11 kts 88°
2026-05-06 13:49 34.85667 136.81070 30 ft 10 kts 79°
2026-05-06 13:49 34.85680 136.81154 30 ft 6 kts 78°
2026-05-06 13:49 34.85693 136.81187 30 ft 2 kts 32°
2026-05-06 13:49 34.85710 136.81189 30 ft 2 kts 358°
2026-05-06 13:50 34.85745 136.81183 30 ft 6 kts 349°
2026-05-06 13:50 34.85774 136.81177 30 ft 0 kts 349°